Location: St. Louis
(38.6270°N, 90.1994°W)
Time: 01:30:10
(UTC-06:00)

Transit 2A - Pass Details

Date: 04 December 2021
Orbit: 591 x 966 km, 66.7° (Epoch: 24 January)

Event Time Altitude Azimuth Distance (km) Brightness Sun altitude
Rises 09:48:01 0° 323° (NW) 3,659 8.9 22.6°
Reaches altitude 10° 09:50:48 10° 316° (NW) 2,697 8.3 22.8°
Maximum altitude 09:56:33 38° 251° (WSW) 1,388 7.5 23.4°
Drops below altitude 10° 10:02:01 10° 185° (S) 2,542 9.8 23.9°
Sets 10:04:34 0° 177° (S) 3,424 10.4 24.1°
